ATLAS 5 CENTAUR DEB, 49366

Orbit data source: Space-Track

ATLAS 5 CENTAUR DEB, 49366 is space debris in HEO originally from a launch on Wed, 17 Oct 2018 UTC launched from the Air Force Eastern Test Range (AFETR). Debris objects in space refer to the collection of defunct objects orbiting the Earth. Examples of debris include non-operational satellites, rocket bodies, and fragments generated from explosions, collisions, or faulty payload assembly.

Loading next visibility...
Identifier
49366, 2018-079FT
Orbit
HEO
Country
Flag of USUS
Related business
Flag of USUnited Launch Alliance/Lockheed Martin (US)
Manufacturer
ULA Decatur
Mission
Spacecraft
Bus & Motor
Unknown
Mass
Unknown
Launch date (UTC)
2018-10-17 (7 years ago)
Launch vehicle
Unknown
Launch site
Air Force Eastern Test Range (AFETR)
Object type
Payload
Rocket body
Debris
Shape & HBR
Unknown shape, 1.1 m
Radar Cross Section
RCS unknown

Expand to show TLE details & history
Last TLE update: 1 month ago

TLE from 1 month ago
0 ATLAS 5 CENTAUR DEB
1 49366U 18079FT  26018.67020066 -.00000171  00000-0  00000-0 0  9997
2 49366  14.1646  52.5376 5212646 265.1901  36.0732  1.65077310 26908
Epoch: 2026-01-18T16:05Z
TLE epoch observation values (Epoch: 2026-01-18T16:05:05.337Z)
Latitude
-0.00002°
Longitude
53.27851°
Altitude
16,660.864 km
Speed
4.628 km/s
True Right ascension
03h 30m 30s
True Declination
0° 00' 00"
Sunlit
Object was in daylight at epoch
Visualization orbit readout
Latitude
Unknown
Longitude
Unknown
Altitude
Unknown
Speed
Unknown
Apparent Right ascension
Unknown
Apparent Declination
Unknown
Sunlit
N/A
Visualization observer readout
Local Sidereal Time
10:35:28
Azimuth
Unknown
Elevation
Unknown
Doppler factor
Unknown
Orbital elements
Apogee altitude
39,631.193 km
Perigee altitude
8,100.8 km
Semi-major axis
30,244.133 km
Eccentricity
0.52126
Inclination
14.1646°
RAAN
52.5376°
Arg. of periapsis
265.1901°
True anomaly
94.59154°
Mean anomaly
36.0732°
Eccentric anomaly
62.58543°
Mean motion
0.41265 °/min
Orbital period
872.41 mins
BSTAR
0
Loading maneuver chart data...
Computing Atmospheric mass density...

Documentation

Showing up to 5 results
|